TimeEST,TemperatureF,Dew PointF,Humidity,Sea Level PressureIn,VisibilityMPH,Wind Direction,Wind SpeedMPH,Gust SpeedMPH,PrecipitationIn,Events,Conditions,WindDirDegrees,DateUTC
12:07 AM,-9.4,-16.6,71,30.10,2.5,NNW,15.0,-,0.00,Snow,Light Snow,340,2014-01-03 05:07:00
12:19 AM,-9.4,-14.8,77,30.10,3.0,NNW,15.0,-,0.00,Snow,Light Snow,340,2014-01-03 05:19:00
12:31 AM,-9.4,-14.8,77,30.09,2.5,NNW,17.3,-,0.00,Snow,Light Snow,340,2014-01-03 05:31:00
12:53 AM,-9.0,-15.0,75,30.12,2.0,North,18.4,-,0.00,Snow,Light Snow,350,2014-01-03 05:53:00
1:06 AM,-9.4,-14.8,77,30.09,2.0,North,17.3,-,0.00,Snow,Light Snow,350,2014-01-03 06:06:00
1:29 AM,-9.4,-14.8,77,30.09,3.0,North,15.0,-,0.00,Snow,Light Snow,350,2014-01-03 06:29:00
1:53 AM,-9.0,-15.0,75,30.12,7.0,North,17.3,-,0.00,,Overcast,350,2014-01-03 06:53:00
2:53 AM,-8.0,-15.0,71,30.11,3.0,NNW,16.1,-,0.00,Snow,Light Snow,340,2014-01-03 07:53:00
3:53 AM,-9.0,-15.0,75,30.11,3.0,NNW,18.4,-,0.00,Snow,Light Snow,340,2014-01-03 08:53:00
4:03 AM,-9.4,-16.6,71,30.08,2.5,NNW,16.1,-,0.00,Snow,Light Snow,340,2014-01-03 09:03:00
4:12 AM,-9.4,-16.6,71,30.08,4.0,NNW,13.8,-,0.00,Snow,Light Snow,330,2014-01-03 09:12:00
4:53 AM,-9.0,-16.1,71,30.12,4.0,NNW,16.1,-,0.00,Snow,Light Snow,340,2014-01-03 09:53:00
5:53 AM,-9.0,-17.0,68,30.14,5.0,NNW,16.1,24.2,0.00,Snow,Light Snow,330,2014-01-03 10:53:00
6:53 AM,-9.0,-17.0,68,30.17,4.0,NNW,17.3,-,0.00,Snow,Light Snow,340,2014-01-03 11:53:00
7:53 AM,-9.0,-17.0,68,30.20,10.0,North,18.4,-,0.00,,Overcast,350,2014-01-03 12:53:00
8:53 AM,-9.0,-16.1,71,30.24,10.0,North,12.7,-,N/A,,Clear,350,2014-01-03 13:53:00
9:53 AM,-8.0,-17.0,65,30.25,10.0,North,15.0,24.2,N/A,,Clear,350,2014-01-03 14:53:00
10:53 AM,-7.1,-16.1,65,30.26,10.0,North,15.0,-,N/A,,Clear,360,2014-01-03 15:53:00
11:53 AM,-5.1,-15.0,62,30.26,10.0,North,15.0,-,N/A,,Clear,10,2014-01-03 16:53:00
12:53 PM,-4.0,-15.0,59,30.28,10.0,NNE,11.5,-,N/A,,Clear,30,2014-01-03 17:53:00
1:53 PM,-2.9,-15.0,56,30.29,10.0,NNE,12.7,-,N/A,,Clear,30,2014-01-03 18:53:00
2:53 PM,-0.9,-15.0,52,30.31,10.0,NNE,11.5,-,N/A,,Clear,30,2014-01-03 19:53:00
3:53 PM,-2.0,-16.1,51,30.34,10.0,NE,5.8,-,N/A,,Clear,40,2014-01-03 20:53:00
4:53 PM,-5.1,-11.0,76,30.38,10.0,East,3.5,-,N/A,,Clear,90,2014-01-03 21:53:00
5:53 PM,-9.0,-14.1,79,30.41,10.0,Calm,Calm,-,N/A,,Clear,0,2014-01-03 22:53:00
6:53 PM,-11.9,-16.1,82,30.43,10.0,Calm,Calm,-,N/A,,Clear,0,2014-01-03 23:53:00
7:53 PM,-15.0,-20.0,78,30.44,10.0,Calm,Calm,-,N/A,,Clear,0,2014-01-04 00:53:00
8:53 PM,-16.1,-20.9,79,30.44,10.0,Calm,Calm,-,N/A,,Clear,0,2014-01-04 01:53:00
9:53 PM,-17.0,-22.0,78,30.43,10.0,Calm,Calm,-,N/A,,Clear,0,2014-01-04 02:53:00
10:53 PM,-18.0,-23.1,78,30.43,10.0,Calm,Calm,-,N/A,,Clear,0,2014-01-04 03:53:00
11:53 PM,-18.0,-24.0,74,30.43,10.0,Calm,Calm,-,N/A,,Clear,0,2014-01-04 04:53:00